Temp
5 5 5 5 5 5 4 4 4 4 4 4 4 4 3 3 3 2 2 2 2 1 1 1 1 1 1 1 1 1 1 1 1 1 1 1 1 1 1 1 1 1
5 4 4 4 4 4 4 4 4 4 4 4 3 3 3 3 2 2 2 1 1 1 1 1 1 1 1 1 1 1 1 1 1 1 1 1 1 1 1 1 1 1
4 4 4 4 4 4 3 3 3 3 3 3 3 2 2 2 2 2 2 1 1 1 1 1 1 1 1 1 1 1 1 1 1 1 1 1 1 1 0 0 0 0
4 3 3 3 3 3 3 3 3 2 2 2 2 2 2 2 1 1 1 1 1 1 1 1 1 1 1 1 1 1 1 1 1 1 1 0 0 0 0 0 0 0
3 3 3 3 3 2 2 2 2 2 1 1 1 1 1 1 1 1 1 0 0 0 0 0 0 0 0 0 0 -0 -0 -0 -0 -0 -0 -0 -0 -0 0 0 0 0
3 2 2 2 2 2 1 1 1 0 0 0 -0 -0 -0 -0 -0 -1 -1 -1 -1 -1 -1 -1 -1 -1 -1 -1 -1 -1 -1 -1 -1 -1 -1 -0 -0 -0 -0 -0 -0 -0
2 2 2 1 1 0 0 -0 -0 -0 -1 -1 -1 -1 -1 -1 -1 -2 -2 -2 -2 -1 -2 -1 -1 -1 -1 -1 -1 -1 -1 -1 -1 -1 -1 -1 -1 -1 -1 -1 -0 -0
1 1 1 0 0 -0 -0 -1 -1 -1 -1 -1 -2 -2 -2 -2 -2 -2 -2 -2 -2 -2 -2 -2 -2 -2 -2 -2 -2 -2 -2 -1 -1 -1 -1 -1 -1 -1 -1 -1 -1 -1
1 0 0 -0 -0 -1 -1 -1 -1 -2 -2 -2 -2 -2 -2 -2 -2 -2 -2 -2 -2 -2 -2 -2 -2 -2 -2 -2 -2 -2 -2 -2 -2 -2 -2 -2 -1 -1 -1 -1 -1 -1
0 -0 -0 -1 -1 -1 -1 -2 -2 -2 -2 -2 -2 -2 -2 -2 -2 -2 -3 -3 -3 -3 -3 -3 -3 -3 -3 -3 -3 -2 -2 -2 -2 -2 -2 -2 -2 -2 -2 -2 -2 -2
-0 -1 -1 -1 -1 -1 -2 -2 -2 -2 -2 -2 -2 -2 -2 -3 -3 -3 -3 -3 -3 -3 -3 -3 -3 -3 -3 -3 -3 -3 -3 -2 -2 -2 -2 -2 -2 -2 -2 -2 -2 -2
-1 -1 -1 -1 -1 -1 -2 -2 -2 -2 -2 -2 -2 -3 -3 -3 -3 -3 -3 -3 -3 -3 -3 -3 -3 -3 -3 -3 -3 -3 -3 -3 -3 -3 -3 -2 -2 -3 -3 -3 -3 -3
-1 -1 -1 -1 -1 -2 -2 -2 -2 -2 -3 -3 -3 -3 -3 -3 -3 -3 -3 -3 -4 -4 -4 -4 -4 -4 -4 -4 -4 -4 -3 -3 -3 -3 -3 -3 -3 -3 -3 -3 -4 -4
-1 -1 -1 -1 -2 -2 -2 -2 -3 -3 -3 -3 -3 -3 -3 -3 -3 -3 -4 -4 -4 -4 -4 -4 -4 -4 -4 -4 -4 -4 -4 -3 -3 -3 -3 -3 -3 -3 -3 -4 -4 -4
-1 -1 -1 -2 -2 -2 -2 -3 -3 -3 -3 -3 -3 -3 -3 -3 -3 -4 -4 -4 -4 -4 -4 -4 -5 -5 -5 -5 -4 -4 -4 -4 -4 -3 -3 -3 -3 -4 -4 -4 -4 -5
-1 -1 -2 -2 -2 -3 -3 -3 -3 -3 -3 -3 -3 -3 -3 -4 -4 -4 -4 -4 -4 -4 -5 -5 -5 -5 -5 -5 -5 -4 -4 -4 -4 -4 -4 -4 -4 -4 -4 -5 -5 -5
-1 -1 -2 -2 -3 -3 -3 -3 -3 -3 -4 -4 -4 -4 -4 -4 -4 -4 -4 -4 -4 -5 -5 -5 -5 -5 -5 -5 -5 -5 -5 -5 -4 -4 -4 -4 -5 -5 -5 -5 -5 -5
-2 -2 -2 -2 -3 -3 -3 -3 -4 -4 -4 -4 -4 -4 -4 -4 -4 -4 -4 -5 -5 -5 -5 -5 -5 -5 -5 -5 -5 -5 -5 -5 -5 -5 -5 -5 -5 -6 -6 -6 -6 -6
-2 -2 -2 -3 -3 -3 -3 -4 -4 -4 -4 -4 -4 -4 -4 -4 -4 -4 -5 -5 -5 -5 -5 -5 -6 -6 -5 -5 -5 -6 -6 -6 -6 -6 -6 -6 -6 -6 -6 -7 -7 -7
-2 -2 -3 -3 -3 -3 -4 -4 -4 -5 -5 -4 -4 -4 -4 -4 -5 -5 -5 -5 -5 -5 -6 -6 -6 -6 -6 -6 -6 -6 -6 -7 -6 -6 -6 -7 -7 -7 -7 -7 -7 -8
-2 -3 -3 -3 -3 -4 -4 -4 -5 -5 -5 -5 -5 -5 -5 -5 -5 -5 -5 -5 -6 -6 -6 -6 -6 -6 -6 -6 -6 -7 -7 -7 -7 -7 -7 -7 -7 -7 -7 -7 -8 -8
-2 -3 -3 -3 -3 -4 -4 -5 -5 -5 -5 -5 -5 -5 -5 -5 -5 -5 -5 -5 -6 -6 -6 -6 -6 -6 -6 -6 -7 -7 -7 -7 -7 -7 -7 -7 -7 -8 -8 -8 -9 -9
-2 -3 -3 -3 -4 -4 -5 -5 -5 -5 -5 -5 -5 -5 -5 -5 -5 -5 -6 -6 -6 -6 -6 -6 -6 -6 -7 -7 -7 -8 -8 -8 -8 -8 -8 -8 -8 -8 -9 -9 -9 -10
-2 -3 -3 -4 -4 -5 -5 -5 -5 -5 -5 -5 -5 -5 -5 -5 -5 -6 -6 -6 -6 -6 -6 -6 -6 -6 -7 -7 -7 -8 -8 -8 -8 -8 -8 -8 -8 -9 -9 -10 -10 -10
-3 -3 -3 -4 -4 -5 -5 -6 -6 -6 -6 -5 -5 -5 -5 -6 -6 -6 -6 -6 -6 -6 -6 -6 -6 -7 -7 -7 -8 -8 -9 -9 -9 -9 -9 -9 -9 -10 -10 -10 -10 -10
-3 -3 -4 -4 -5 -5 -5 -6 -6 -6 -6 -6 -6 -6 -6 -6 -6 -6 -6 -6 -7 -7 -6 -7 -7 -7 -7 -8 -8 -9 -9 -10 -10 -10 -10 -10 -10 -10 -10 -10 -10 -11
Height
1564 1564 1563 1563 1563 1563 1564 1563 1563 1562 1561 1561 1561 1561 1562 1562 1562 1563 1563 1563 1562 1562 1561 1561 1561 1561 1561 1560 1560 1559 1559 1559 1558 1558 1557 1557 1556 1555 1554 1554 1553 1552
1564 1563 1563 1563 1563 1563 1563 1563 1562 1561 1561 1561 1561 1561 1562 1562 1562 1562 1562 1563 1562 1561 1561 1561 1561 1560 1560 1560 1559 1559 1558 1558 1557 1557 1556 1555 1555 1554 1553 1552 1551 1550
1563 1563 1563 1563 1563 1563 1562 1562 1561 1561 1561 1561 1561 1562 1562 1562 1562 1562 1562 1562 1562 1561 1560 1560 1560 1560 1559 1559 1558 1558 1557 1557 1556 1555 1554 1553 1552 1551 1550 1549 1548 1547
1562 1562 1562 1562 1562 1562 1562 1561 1560 1560 1561 1561 1561 1562 1562 1562 1562 1562 1562 1562 1561 1560 1560 1560 1559 1559 1558 1558 1557 1557 1556 1555 1554 1553 1552 1551 1550 1549 1547 1546 1545 1543
1561 1562 1562 1562 1561 1561 1561 1560 1560 1560 1560 1561 1561 1561 1561 1562 1562 1562 1561 1561 1560 1560 1559 1559 1558 1558 1557 1557 1556 1555 1555 1554 1553 1552 1551 1550 1548 1547 1545 1544 1542 1541
1561 1561 1561 1561 1560 1560 1560 1560 1560 1560 1560 1560 1560 1560 1561 1561 1560 1560 1560 1559 1559 1558 1558 1557 1557 1556 1555 1555 1554 1553 1552 1551 1550 1549 1548 1547 1546 1544 1543 1541 1540 1539
1560 1560 1560 1560 1559 1559 1559 1559 1559 1559 1559 1559 1559 1559 1559 1559 1559 1558 1558 1557 1557 1556 1556 1555 1554 1553 1552 1552 1551 1550 1549 1548 1547 1546 1544 1543 1542 1541 1540 1538 1537 1535
1559 1559 1558 1558 1558 1558 1558 1557 1557 1557 1557 1557 1557 1557 1557 1557 1556 1556 1555 1555 1554 1553 1553 1552 1551 1550 1549 1548 1548 1546 1546 1544 1543 1542 1540 1539 1538 1537 1536 1534 1533 1531
1557 1557 1557 1557 1557 1556 1556 1556 1556 1556 1556 1556 1556 1555 1555 1555 1554 1553 1553 1552 1552 1551 1550 1549 1548 1547 1546 1545 1544 1543 1541 1540 1539 1538 1536 1535 1534 1532 1531 1530 1528 1527
1555 1555 1555 1555 1555 1555 1554 1554 1554 1554 1554 1554 1554 1553 1553 1552 1551 1551 1550 1549 1548 1548 1546 1545 1544 1543 1542 1541 1539 1538 1537 1535 1534 1533 1532 1530 1529 1528 1526 1525 1523 1522
1553 1553 1553 1553 1553 1553 1553 1553 1552 1552 1552 1552 1551 1551 1550 1549 1549 1548 1547 1546 1545 1544 1543 1542 1540 1539 1538 1537 1535 1534 1532 1531 1529 1528 1527 1525 1524 1522 1521 1519 1518 1516
1550 1550 1550 1550 1551 1550 1550 1550 1550 1550 1550 1549 1549 1548 1547 1547 1546 1545 1544 1544 1542 1541 1540 1539 1538 1536 1535 1533 1532 1530 1529 1527 1526 1524 1523 1521 1520 1518 1516 1514 1513 1511
1547 1548 1548 1548 1548 1548 1548 1548 1548 1548 1547 1547 1546 1546 1545 1545 1544 1543 1542 1541 1540 1539 1537 1536 1535 1533 1532 1530 1528 1527 1525 1523 1522 1520 1519 1517 1516 1514 1513 1511 1509 1507
1545 1545 1545 1546 1546 1546 1546 1546 1545 1545 1544 1544 1544 1543 1543 1543 1542 1541 1540 1539 1537 1536 1534 1533 1531 1530 1528 1526 1525 1523 1521 1520 1518 1516 1515 1513 1512 1510 1509 1507 1504 1503
1542 1542 1543 1543 1543 1543 1543 1543 1543 1542 1542 1542 1542 1541 1541 1540 1539 1538 1537 1536 1534 1532 1531 1529 1528 1526 1525 1523 1521 1519 1517 1516 1514 1513 1511 1509 1508 1506 1504 1503 1501 1498
1539 1539 1540 1540 1540 1541 1541 1540 1540 1540 1540 1540 1539 1539 1538 1537 1536 1535 1534 1533 1531 1529 1528 1526 1524 1523 1521 1519 1517 1515 1513 1512 1510 1508 1507 1505 1503 1502 1500 1498 1496 1494
1536 1536 1537 1537 1537 1538 1537 1537 1537 1537 1537 1537 1536 1536 1535 1534 1533 1532 1531 1529 1528 1526 1524 1522 1521 1519 1517 1515 1514 1511 1510 1508 1506 1504 1503 1501 1499 1497 1495 1493 1491 1489
1533 1533 1534 1534 1534 1534 1534 1534 1534 1534 1534 1534 1533 1533 1532 1531 1530 1528 1527 1526 1524 1522 1521 1519 1517 1516 1514 1512 1510 1508 1506 1504 1502 1500 1498 1496 1494 1492 1490 1488 1486 1484
1530 1530 1530 1531 1531 1531 1531 1531 1531 1531 1531 1531 1530 1529 1528 1527 1526 1525 1524 1522 1520 1519 1517 1515 1514 1512 1510 1508 1506 1504 1502 1500 1498 1496 1494 1492 1490 1488 1486 1483 1481 1479
1527 1527 1527 1527 1528 1528 1528 1528 1528 1528 1528 1527 1527 1526 1525 1524 1523 1521 1520 1518 1517 1515 1513 1511 1510 1508 1506 1504 1502 1500 1498 1496 1493 1492 1490 1488 1486 1483 1481 1479 1476 1474
1524 1524 1524 1524 1524 1524 1524 1525 1525 1525 1524 1524 1523 1522 1521 1520 1519 1517 1516 1514 1513 1511 1509 1507 1506 1504 1502 1500 1498 1496 1493 1491 1489 1487 1485 1483 1481 1479 1476 1474 1472 1469
1520 1520 1520 1520 1521 1521 1521 1521 1522 1521 1521 1520 1519 1519 1518 1516 1515 1513 1512 1510 1509 1507 1505 1503 1502 1500 1498 1496 1493 1492 1489 1487 1485 1483 1481 1479 1476 1474 1472 1469 1467 1465
1517 1517 1517 1517 1517 1517 1518 1518 1518 1518 1517 1517 1516 1515 1514 1513 1511 1510 1508 1506 1505 1503 1501 1499 1498 1496 1494 1492 1489 1488 1485 1483 1481 1479 1476 1474 1472 1470 1467 1465 1463 1461
1512 1513 1513 1513 1513 1514 1514 1514 1514 1514 1513 1513 1512 1511 1510 1508 1507 1505 1504 1502 1501 1499 1497 1495 1493 1492 1490 1488 1486 1484 1482 1479 1477 1475 1472 1470 1468 1466 1463 1461 1459 1457
1509 1509 1509 1509 1510 1510 1511 1511 1510 1510 1510 1509 1508 1507 1505 1504 1502 1501 1500 1498 1497 1495 1493 1491 1489 1488 1486 1484 1482 1480 1478 1476 1473 1470 1468 1466 1464 1461 1459 1457 1455 1453
1505 1505 1506 1506 1506 1507 1507 1507 1506 1506 1505 1504 1503 1502 1501 1500 1498 1497 1495 1494 1492 1491 1489 1487 1485 1484 1482 1480 1478 1477 1475 1472 1470 1467 1465 1462 1460 1457 1455 1453 1451 1448
Wind_Speed
3 2 2 3 3 3 4 4 5 5 6 7 7 8 9 10 10 10 10 10 10 9 9 9 9 10 10 10 11 11 12 12 13 13 14 15 15 16 17 18 19 20
1 1 1 2 2 2 3 3 4 5 6 7 7 8 9 10 10 10 11 11 11 11 11 11 12 12 13 13 13 14 14 15 15 15 16 17 17 18 19 19 20 21
1 2 2 2 2 2 3 4 4 5 6 6 7 7 8 9 10 10 11 11 11 12 12 13 14 15 16 16 17 18 18 19 19 20 20 21 22 22 23 23 24 24
4 4 4 4 4 4 5 5 5 5 5 6 6 7 8 8 9 10 11 12 12 13 14 15 16 16 17 18 18 19 19 20 21 21 22 23 24 25 26 26 27 27
6 6 6 6 6 6 6 6 6 5 5 5 6 6 7 8 9 10 11 12 13 14 15 16 16 17 17 18 18 19 20 20 21 21 22 23 23 25 26 26 27 28
9 9 8 8 8 7 6 5 5 4 4 4 4 5 7 8 9 10 11 12 13 14 15 16 17 17 18 19 19 20 20 21 22 22 23 23 24 25 26 27 27 28
11 10 9 8 7 6 5 4 3 3 4 5 6 7 8 9 10 11 12 13 14 15 16 17 18 18 19 20 20 21 22 23 23 24 24 25 25 26 27 27 29 29
12 11 10 8 7 5 5 4 4 4 5 6 8 9 10 11 12 13 14 15 16 17 18 19 19 20 21 21 22 23 23 24 25 25 26 27 27 28 29 29 30 31
13 12 10 8 7 5 4 4 4 5 6 8 10 11 12 14 15 16 17 18 18 19 20 21 22 22 23 23 24 25 25 26 26 27 28 29 29 30 31 32 33 33
15 13 10 7 6 4 4 4 5 6 8 10 12 13 15 17 18 19 20 21 21 22 23 24 24 25 26 26 27 28 29 29 29 30 30 31 32 33 34 35 35 36
15 12 9 7 6 5 6 6 7 9 10 12 14 16 18 19 21 22 23 24 24 25 26 27 27 28 28 29 29 30 31 32 32 33 34 34 35 36 37 38 38 38
13 11 9 8 8 8 8 8 9 11 12 14 16 18 20 22 23 24 25 25 26 27 27 28 28 29 29 30 31 31 32 33 34 35 36 36 37 38 39 40 40 40
13 11 11 10 10 10 9 10 10 12 14 15 17 19 21 23 24 26 27 27 28 28 28 29 29 29 30 31 32 33 34 35 35 36 37 38 38 39 40 40 40 40
14 13 13 13 12 11 11 11 11 13 15 17 19 20 22 24 26 28 29 30 30 30 30 30 30 30 31 32 33 34 35 36 37 37 38 39 39 40 40 40 41 41
15 16 16 15 14 13 12 12 13 14 16 17 19 21 23 25 27 29 31 32 33 32 31 31 31 31 32 33 35 36 36 37 37 38 39 40 40 40 40 40 40 41
18 18 18 17 16 15 15 15 15 16 17 19 20 22 24 26 28 30 32 34 34 34 33 33 32 33 33 34 35 36 37 37 38 38 39 40 41 41 41 41 41 41
20 21 21 20 19 18 17 17 18 19 19 21 22 24 25 27 28 31 33 35 36 36 35 34 33 33 34 35 36 36 36 37 38 39 39 40 40 40 41 41 41 42
22 23 23 22 21 20 20 20 21 21 21 23 24 25 26 28 29 32 34 36 36 36 35 34 34 34 34 35 35 35 35 36 37 38 39 39 39 40 40 41 42 43
25 26 25 25 24 24 24 23 23 23 24 25 25 26 28 29 31 33 35 36 36 36 35 34 33 34 34 35 35 35 35 35 36 37 37 38 38 39 40 41 42 43
27 28 28 28 27 27 27 26 26 26 26 26 27 28 29 30 32 34 35 36 36 36 35 34 33 34 34 34 34 34 34 35 36 37 37 37 38 39 40 41 42 43
29 30 30 31 31 30 30 29 28 27 27 27 28 29 30 31 33 35 36 36 37 36 35 34 33 33 33 34 34 34 34 35 36 36 37 38 39 39 40 41 42 43
31 32 33 33 33 32 32 30 29 28 28 28 29 29 31 32 34 36 36 37 37 36 34 34 34 33 33 33 33 33 34 35 36 37 38 39 39 40 41 41 42 42
32 32 33 33 33 32 32 31 29 28 28 29 30 31 32 33 35 36 37 37 37 35 34 34 34 33 32 33 33 33 34 35 36 37 38 39 39 40 41 41 41 40
27 28 29 29 30 30 30 30 29 28 29 29 30 32 33 34 35 36 37 37 35 34 34 34 34 33 32 32 32 32 33 34 35 37 37 38 39 40 40 40 40 39
23 24 25 26 28 29 29 29 29 29 29 30 31 33 34 35 36 36 37 36 34 33 34 34 34 33 32 32 32 32 32 33 35 36 37 38 38 39 39 39 39 39
23 24 25 26 27 28 28 29 29 29 30 31 32 33 34 35 35 36 36 35 33 33 34 33 33 33 32 32 32 31 31 32 33 34 35 36 37 38 39 39 39 39
Wind_Direction
63 52 33 16 7 3 360 353 349 345 345 347 345 344 345 347 351 353 352 352 353 353 352 351 350 347 345 344 342 341 340 339 338 338 337 336 336 335 335 335 334 334
64 23 346 332 331 335 330 326 329 328 328 331 331 333 336 339 341 341 340 340 339 339 339 337 335 333 332 331 330 330 329 329 328 328 328 328 328 327 326 326 326 326
245 262 262 274 282 289 296 301 304 305 309 313 317 323 325 325 325 323 321 320 319 319 318 316 315 314 314 314 315 315 316 317 317 318 319 320 321 321 321 321 321 322
246 252 249 254 259 263 268 272 277 284 292 296 301 305 305 305 305 303 302 302 302 303 303 304 304 304 305 305 306 307 308 309 310 311 312 313 314 315 315 316 316 317
247 248 246 248 249 251 253 255 262 269 274 279 285 291 294 296 297 298 298 299 299 300 300 301 301 300 300 301 301 301 302 303 304 305 306 307 309 310 311 311 312 312
245 243 241 241 242 242 245 245 251 259 269 284 295 300 302 303 303 303 302 302 302 301 300 300 299 299 298 298 299 299 300 301 302 303 304 305 306 308 309 308 308 308
243 241 238 238 237 236 240 247 261 285 303 312 317 317 316 314 313 312 310 309 309 307 306 304 303 302 301 301 301 302 302 303 304 305 306 307 308 308 308 308 308 307
241 239 236 235 237 240 253 272 294 315 325 328 329 327 324 322 320 319 317 316 315 313 312 310 308 307 306 306 306 305 305 306 307 307 308 309 310 310 310 310 308 308
239 237 236 236 241 250 269 292 312 325 330 330 331 330 329 329 327 324 322 320 319 317 315 313 312 311 310 311 311 310 310 310 310 310 311 311 312 312 312 311 310 310
238 237 235 235 241 254 275 295 309 319 325 327 331 333 334 334 331 329 327 325 323 321 319 317 316 315 315 315 315 314 314 313 313 313 314 314 314 314 314 314 313 312
236 234 231 233 244 260 280 295 306 314 320 326 331 334 336 336 334 331 329 326 324 322 320 319 318 317 316 316 315 315 315 314 314 314 314 315 316 316 316 316 315 314
234 233 234 244 258 271 284 295 305 312 319 325 330 334 336 336 335 333 330 326 323 321 319 318 317 317 316 315 315 314 314 314 313 314 314 315 316 316 316 316 316 315
236 240 247 256 264 273 283 293 304 312 319 324 327 330 332 334 335 333 331 327 323 320 319 317 317 316 316 315 315 314 314 313 313 313 313 314 315 315 315 315 315 314
241 247 252 257 263 270 279 290 301 310 316 320 321 323 325 327 329 331 330 328 325 322 319 318 317 317 317 316 315 315 314 313 313 313 313 313 314 314 314 314 314 314
246 251 254 257 261 268 276 286 296 304 309 311 312 314 316 319 322 326 328 328 326 323 321 319 318 318 318 316 315 315 314 313 313 312 313 313 313 313 313 313 313 313
249 253 256 258 261 266 274 283 291 296 299 300 303 306 309 313 317 321 325 326 326 324 321 319 319 318 318 317 316 316 315 314 313 313 313 313 313 313 313 313 313 314
252 256 258 260 263 268 274 280 284 288 291 293 297 302 305 309 313 318 322 324 324 323 321 319 318 318 318 317 316 316 314 314 313 313 314 314 313 314 314 314 315 314
253 258 261 263 266 270 273 276 279 282 286 290 295 299 302 306 311 316 320 322 322 321 320 318 317 317 317 316 315 314 314 313 314 314 314 315 314 314 315 315 315 315
253 258 262 265 267 270 271 273 276 278 283 289 293 297 300 305 310 315 319 320 320 319 317 316 316 317 316 315 314 314 314 314 314 315 315 315 315 315 316 315 315 315
254 258 262 265 267 268 269 271 273 277 282 287 291 295 299 305 310 314 317 318 318 317 316 315 316 316 315 314 313 313 314 314 315 315 315 315 315 315 315 315 316 317
257 259 262 265 266 267 268 269 272 276 280 285 289 294 299 305 310 313 315 316 316 316 314 314 315 315 314 313 313 314 314 315 315 315 315 315 315 316 316 317 318 318
260 262 264 265 266 266 266 267 270 274 279 284 289 294 300 306 310 312 314 314 315 314 312 312 313 313 313 312 313 314 315 315 315 315 315 314 315 316 316 317 318 319
264 265 265 265 265 264 264 266 269 273 278 283 289 295 301 306 309 311 312 312 313 312 310 311 312 312 312 312 313 315 315 314 314 314 314 314 315 316 316 317 318 319
268 267 266 265 264 263 263 265 269 273 278 284 291 297 302 306 308 309 310 311 310 309 309 310 310 311 311 311 313 314 314 313 313 313 313 314 315 316 316 316 316 316
273 270 268 265 264 263 264 267 270 275 280 287 294 299 303 306 307 308 309 308 307 307 308 308 308 309 310 311 312 312 312 313 313 313 314 315 315 314 314 314 315 315
274 273 270 267 265 265 266 268 272 277 284 291 297 301 303 304 306 307 306 305 305 306 307 307 307 308 309 309 310 311 313 314 313 312 313 313 312 312 313 315 316 317